Temp
-14 -13 -13 -14 -14 -14 -13 -13 -13 -13 -13 -13 -13 -12 -12 -12 -11 -11 -11 -10 -10 -10 -11 -13 -14 -17 -19 -20 -22 -23 -23 -23 -23 -22 -22 -21 -21 -21 -20 -19 -19 -18 -16 -16 -16 -16 -16
-14 -14 -14 -14 -14 -14 -14 -14 -13 -14 -14 -14 -13 -12 -13 -12 -12 -11 -11 -10 -10 -11 -12 -13 -15 -17 -20 -21 -22 -23 -23 -23 -23 -22 -22 -21 -22 -21 -20 -19 -19 -17 -16 -17 -16 -16 -16
-15 -15 -15 -14 -14 -14 -14 -14 -14 -14 -14 -14 -14 -13 -13 -13 -12 -11 -11 -11 -10 -11 -13 -13 -15 -18 -20 -21 -23 -23 -24 -23 -23 -22 -22 -22 -21 -21 -20 -20 -19 -18 -16 -16 -15 -16 -16
-15 -15 -15 -15 -15 -15 -15 -15 -14 -15 -15 -14 -13 -13 -13 -13 -12 -12 -12 -11 -11 -11 -13 -14 -16 -18 -20 -23 -23 -24 -24 -23 -23 -23 -23 -22 -21 -21 -20 -19 -19 -19 -17 -17 -15 -15 -15
-16 -15 -15 -15 -15 -15 -15 -14 -14 -14 -15 -14 -14 -14 -13 -13 -12 -12 -12 -11 -11 -12 -13 -14 -16 -18 -20 -22 -23 -24 -24 -23 -23 -23 -22 -21 -22 -21 -20 -19 -19 -18 -17 -16 -16 -15 -13
-17 -16 -16 -16 -16 -16 -16 -15 -14 -14 -14 -15 -14 -14 -13 -13 -12 -12 -11 -12 -11 -12 -14 -15 -17 -18 -20 -21 -22 -23 -24 -23 -23 -23 -22 -21 -22 -21 -19 -19 -19 -18 -17 -17 -16 -15 -15
-17 -17 -17 -17 -16 -16 -15 -15 -15 -14 -14 -15 -14 -14 -13 -13 -12 -12 -12 -11 -12 -13 -14 -15 -18 -19 -21 -22 -23 -23 -24 -23 -23 -22 -22 -21 -21 -21 -20 -18 -18 -18 -18 -17 -17 -15 -15
-18 -18 -17 -17 -17 -17 -16 -16 -14 -14 -14 -14 -14 -14 -13 -14 -12 -12 -12 -12 -12 -13 -15 -16 -18 -20 -21 -21 -21 -22 -22 -22 -23 -22 -22 -21 -20 -20 -20 -19 -19 -19 -18 -17 -17 -16 -16
-18 -18 -18 -18 -17 -17 -17 -16 -15 -15 -14 -14 -14 -14 -14 -14 -12 -12 -12 -12 -13 -13 -15 -17 -18 -20 -21 -21 -21 -22 -22 -22 -22 -22 -22 -21 -20 -19 -18 -19 -19 -18 -17 -17 -16 -16 -16
-18 -18 -18 -18 -18 -18 -18 -17 -16 -15 -15 -15 -14 -14 -14 -14 -13 -12 -12 -12 -12 -13 -15 -17 -18 -20 -21 -21 -21 -22 -21 -21 -21 -21 -21 -21 -19 -19 -19 -19 -19 -19 -18 -17 -17 -17 -16
-18 -18 -18 -18 -18 -18 -18 -17 -16 -15 -15 -15 -14 -15 -14 -14 -13 -12 -12 -12 -12 -13 -15 -17 -18 -20 -20 -20 -20 -21 -20 -21 -20 -20 -19 -19 -19 -19 -19 -18 -18 -18 -18 -17 -17 -16 -17
-18 -18 -18 -18 -18 -18 -18 -18 -16 -16 -15 -15 -14 -15 -15 -14 -13 -12 -12 -12 -12 -13 -15 -17 -19 -20 -20 -20 -20 -20 -21 -21 -20 -20 -20 -19 -19 -19 -19 -19 -18 -18 -17 -17 -17 -17 -17
-19 -19 -19 -19 -18 -18 -18 -18 -17 -16 -15 -15 -14 -15 -15 -14 -13 -13 -12 -12 -12 -13 -15 -17 -19 -19 -20 -21 -21 -21 -20 -20 -20 -19 -19 -19 -19 -19 -18 -18 -18 -18 -18 -17 -18 -18 -18
-20 -20 -21 -20 -20 -18 -17 -17 -17 -16 -15 -15 -14 -15 -14 -14 -13 -12 -12 -12 -12 -12 -14 -17 -18 -19 -20 -20 -20 -20 -20 -20 -20 -19 -19 -18 -18 -19 -19 -19 -18 -18 -18 -18 -18 -17 -17
-21 -21 -22 -22 -21 -19 -18 -17 -16 -16 -16 -15 -15 -15 -14 -13 -13 -12 -12 -11 -11 -12 -14 -17 -19 -19 -19 -19 -19 -20 -20 -19 -19 -19 -19 -19 -18 -18 -18 -18 -19 -18 -18 -18 -18 -18 -18
-22 -25 -25 -26 -26 -23 -21 -19 -17 -16 -16 -15 -15 -15 -15 -13 -13 -12 -12 -11 -11 -11 -13 -16 -18 -19 -20 -19 -19 -20 -19 -19 -19 -19 -19 -19 -19 -19 -19 -18 -18 -19 -19 -18 -18 -18 -17
-25 -27 -27 -28 -28 -27 -25 -22 -20 -19 -18 -17 -15 -14 -15 -13 -13 -12 -11 -11 -11 -11 -13 -15 -17 -19 -19 -20 -20 -19 -19 -19 -19 -19 -19 -19 -19 -19 -19 -19 -19 -19 -19 -19 -18 -18 -18
-27 -28 -27 -28 -29 -27 -25 -22 -20 -17 -17 -16 -16 -15 -14 -13 -13 -12 -11 -11 -10 -11 -12 -14 -17 -18 -19 -19 -20 -19 -19 -19 -19 -19 -19 -19 -19 -19 -19 -19 -19 -19 -19 -19 -19 -19 -18
-28 -29 -28 -29 -28 -27 -25 -21 -19 -18 -16 -16 -16 -15 -14 -13 -13 -12 -11 -11 -10 -11 -12 -13 -15 -18 -18 -19 -19 -19 -19 -19 -19 -19 -19 -19 -19 -19 -19 -19 -19 -19 -19 -20 -19 -19 -19
-28 -29 -27 -28 -27 -26 -23 -20 -18 -16 -16 -16 -15 -15 -14 -14 -13 -12 -11 -10 -10 -10 -11 -13 -15 -18 -19 -19 -19 -19 -19 -19 -19 -19 -19 -19 -19 -19 -19 -19 -19 -19 -19 -19 -19 -19 -19
-28 -29 -27 -26 -27 -22 -20 -19 -17 -17 -16 -16 -15 -14 -14 -14 -13 -12 -11 -11 -10 -10 -11 -12 -14 -17 -19 -19 -19 -19 -19 -19 -19 -19 -19 -19 -19 -19 -19 -19 -19 -19 -19 -19 -19 -19 -19
-28 -27 -26 -25 -23 -22 -18 -18 -17 -16 -16 -16 -15 -15 -14 -14 -13 -12 -11 -11 -10 -10 -11 -12 -13 -16 -18 -19 -20 -19 -19 -19 -19 -19 -19 -19 -19 -19 -19 -19 -19 -19 -19 -19 -19 -19 -19
-27 -25 -25 -22 -20 -20 -19 -18 -17 -17 -16 -15 -15 -15 -14 -13 -13 -12 -11 -11 -11 -10 -11 -11 -12 -14 -16 -18 -19 -19 -19 -19 -19 -19 -19 -19 -19 -19 -18 -19 -19 -19 -19 -18 -18 -19 -19
-26 -24 -22 -20 -20 -19 -18 -17 -17 -16 -15 -16 -16 -15 -13 -14 -13 -12 -11 -11 -11 -11 -11 -11 -11 -12 -14 -16 -17 -19 -19 -19 -19 -19 -19 -19 -19 -19 -19 -19 -18 -19 -19 -19 -19 -19 -19
-25 -22 -20 -20 -20 -19 -18 -17 -16 -16 -16 -16 -15 -14 -13 -14 -13 -12 -12 -11 -11 -11 -11 -11 -11 -12 -12 -13 -15 -16 -18 -19 -20 -20 -20 -20 -20 -19 -19 -19 -19 -19 -19 -19 -19 -19 -19
-23 -21 -18 -19 -19 -18 -17 -17 -16 -15 -16 -15 -14 -14 -13 -14 -13 -12 -12 -11 -11 -11 -11 -11 -12 -12 -12 -13 -14 -15 -17 -19 -18 -20 -20 -20 -20 -20 -20 -19 -19 -19 -19 -20 -20 -19 -19
-21 -19 -18 -19 -19 -17 -17 -16 -16 -16 -15 -14 -14 -13 -13 -14 -13 -12 -12 -11 -11 -11 -11 -11 -12 -12 -12 -13 -13 -14 -15 -16 -17 -18 -19 -20 -20 -20 -19 -19 -19 -19 -19 -20 -20 -20 -20
-19 -19 -19 -20 -18 -17 -17 -17 -16 -16 -15 -14 -14 -14 -13 -14 -13 -12 -12 -12 -11 -12 -12 -12 -12 -12 -12 -13 -13 -14 -14 -15 -15 -17 -18 -18 -18 -20 -20 -20 -19 -19 -19 -19 -20 -20 -20
-19 -19 -17 -17 -17 -17 -17 -16 -16 -16 -14 -14 -14 -14 -13 -14 -13 -13 -12 -12 -12 -12 -12 -12 -12 -12 -13 -13 -13 -13 -14 -14 -14 -15 -16 -17 -18 -18 -19 -19 -20 -20 -20 -20 -20 -20 -20
Height
5798 5793 5788 5784 5779 5775 5771 5768 5764 5761 5754 5748 5745 5741 5735 5731 5724 5719 5710 5702 5692 5679 5665 5654 5639 5626 5612 5605 5595 5588 5583 5580 5580 5582 5586 5590 5594 5604 5618 5635 5647 5657 5673 5680 5697 5709 5720
5789 5786 5782 5778 5773 5769 5765 5760 5755 5752 5749 5742 5738 5735 5729 5725 5719 5713 5704 5695 5684 5672 5658 5647 5633 5618 5606 5598 5588 5584 5579 5575 5577 5579 5583 5587 5594 5602 5616 5631 5642 5652 5665 5679 5695 5703 5716
5778 5774 5771 5769 5765 5762 5757 5754 5749 5745 5741 5737 5733 5728 5722 5720 5712 5708 5699 5688 5677 5665 5652 5640 5626 5612 5599 5590 5582 5580 5575 5572 5575 5578 5582 5587 5595 5604 5614 5628 5642 5656 5665 5675 5683 5696 5709
5767 5764 5761 5757 5754 5751 5749 5746 5743 5739 5734 5730 5726 5722 5717 5713 5707 5703 5693 5683 5672 5658 5647 5634 5621 5607 5593 5582 5577 5574 5573 5572 5573 5578 5583 5589 5596 5607 5616 5628 5639 5647 5662 5672 5681 5692 5703
5757 5753 5750 5747 5744 5741 5738 5737 5735 5733 5727 5725 5721 5715 5712 5707 5702 5697 5687 5676 5667 5652 5642 5630 5616 5602 5590 5577 5571 5568 5570 5570 5574 5579 5585 5591 5598 5608 5618 5628 5637 5644 5653 5668 5682 5688 5693
5744 5741 5738 5735 5733 5732 5729 5727 5726 5724 5722 5717 5713 5710 5706 5701 5697 5692 5683 5671 5663 5649 5638 5626 5611 5599 5586 5574 5563 5559 5564 5568 5575 5580 5586 5591 5598 5609 5621 5632 5637 5644 5657 5666 5678 5687 5696
5730 5727 5725 5723 5721 5720 5718 5716 5716 5716 5713 5711 5707 5705 5702 5696 5692 5687 5679 5669 5660 5647 5636 5623 5610 5597 5586 5575 5568 5564 5564 5573 5578 5582 5588 5595 5604 5612 5619 5629 5640 5648 5659 5669 5677 5684 5688
5717 5715 5713 5710 5709 5708 5706 5706 5705 5706 5705 5704 5701 5698 5696 5692 5688 5683 5674 5665 5656 5645 5633 5622 5610 5600 5591 5583 5581 5578 5580 5582 5583 5587 5595 5603 5612 5619 5625 5632 5640 5647 5654 5663 5676 5683 5688
5703 5701 5699 5698 5695 5694 5693 5693 5693 5695 5694 5695 5695 5691 5689 5687 5684 5679 5671 5663 5653 5642 5634 5623 5613 5604 5598 5593 5590 5589 5587 5587 5588 5593 5600 5608 5617 5622 5629 5636 5640 5647 5656 5668 5679 5680 5686
5690 5686 5684 5682 5680 5679 5679 5679 5680 5683 5683 5686 5685 5685 5681 5682 5680 5674 5668 5660 5651 5640 5633 5625 5615 5608 5604 5601 5599 5596 5595 5596 5598 5603 5611 5618 5621 5626 5629 5639 5643 5647 5655 5667 5673 5678 5684
5674 5670 5666 5663 5662 5662 5662 5663 5666 5670 5672 5676 5676 5678 5676 5675 5674 5670 5665 5657 5649 5639 5634 5626 5616 5611 5608 5608 5606 5605 5603 5604 5607 5612 5619 5622 5625 5630 5636 5641 5647 5654 5660 5668 5674 5677 5682
5653 5648 5645 5642 5641 5642 5644 5645 5652 5655 5661 5663 5668 5670 5670 5668 5668 5665 5661 5654 5647 5639 5632 5625 5618 5614 5612 5613 5610 5611 5612 5613 5617 5619 5621 5626 5631 5635 5639 5643 5647 5651 5659 5665 5668 5673 5681
5628 5620 5613 5609 5611 5615 5620 5626 5633 5641 5648 5651 5659 5661 5663 5661 5662 5660 5657 5651 5646 5636 5631 5625 5619 5616 5614 5615 5615 5617 5619 5622 5625 5625 5627 5629 5634 5641 5646 5650 5652 5655 5659 5665 5667 5673 5680
5599 5591 5584 5576 5574 5579 5589 5600 5613 5625 5632 5639 5649 5652 5654 5655 5655 5654 5653 5649 5643 5634 5629 5622 5619 5619 5617 5618 5620 5621 5625 5627 5628 5628 5632 5634 5639 5642 5646 5651 5654 5656 5660 5662 5667 5674 5680
5572 5560 5549 5538 5535 5541 5551 5569 5590 5608 5617 5629 5639 5643 5646 5648 5648 5649 5650 5645 5640 5633 5627 5623 5619 5619 5621 5621 5625 5626 5629 5629 5630 5633 5636 5638 5641 5644 5648 5650 5655 5657 5661 5664 5669 5674 5678
5543 5526 5515 5507 5505 5511 5523 5538 5565 5591 5605 5619 5627 5632 5636 5641 5642 5645 5645 5642 5637 5632 5626 5621 5619 5620 5621 5624 5626 5629 5632 5633 5634 5636 5638 5640 5643 5645 5648 5651 5652 5655 5661 5665 5669 5674 5676
5519 5506 5494 5491 5494 5500 5512 5526 5549 5571 5593 5607 5616 5622 5628 5635 5636 5640 5640 5638 5635 5631 5625 5622 5619 5619 5621 5624 5627 5630 5633 5635 5637 5639 5641 5643 5645 5647 5648 5650 5652 5656 5659 5663 5667 5671 5673
5503 5489 5479 5479 5485 5491 5505 5518 5537 5561 5577 5593 5605 5615 5621 5627 5632 5635 5636 5635 5633 5630 5623 5620 5617 5618 5622 5624 5627 5630 5633 5636 5639 5641 5643 5644 5645 5647 5648 5649 5652 5654 5658 5660 5662 5666 5670
5491 5477 5469 5470 5477 5483 5495 5511 5529 5550 5574 5588 5597 5607 5613 5622 5626 5630 5632 5632 5631 5629 5624 5620 5616 5616 5618 5622 5625 5628 5632 5634 5637 5640 5643 5644 5646 5647 5649 5651 5652 5653 5654 5657 5661 5664 5667
5478 5467 5462 5464 5471 5476 5487 5503 5528 5545 5566 5582 5591 5600 5608 5616 5621 5626 5628 5629 5630 5627 5624 5620 5616 5613 5616 5618 5623 5628 5631 5633 5636 5639 5641 5643 5645 5647 5649 5650 5651 5652 5654 5655 5657 5660 5663
5470 5459 5457 5461 5466 5477 5485 5506 5528 5544 5562 5575 5585 5595 5604 5611 5616 5621 5624 5626 5627 5626 5623 5620 5615 5612 5613 5617 5621 5625 5629 5632 5635 5637 5639 5641 5643 5646 5648 5649 5650 5651 5653 5655 5658 5660 5661
5463 5455 5455 5461 5466 5477 5495 5512 5528 5545 5555 5569 5580 5590 5598 5605 5611 5617 5621 5623 5625 5625 5623 5621 5617 5614 5612 5616 5620 5621 5626 5629 5632 5635 5636 5638 5641 5643 5645 5647 5649 5650 5652 5653 5655 5655 5656
5458 5454 5455 5462 5469 5481 5497 5512 5526 5543 5553 5564 5574 5584 5593 5600 5607 5613 5617 5619 5623 5624 5624 5622 5618 5615 5613 5615 5615 5618 5621 5624 5627 5630 5632 5635 5638 5640 5642 5644 5645 5648 5648 5649 5650 5651 5652
5455 5455 5455 5467 5473 5483 5497 5510 5525 5537 5549 5560 5571 5578 5587 5596 5603 5609 5613 5617 5620 5622 5623 5622 5620 5616 5615 5612 5612 5614 5616 5620 5622 5625 5628 5631 5633 5636 5639 5640 5641 5643 5643 5644 5645 5645 5646
5452 5454 5460 5469 5473 5487 5501 5515 5527 5533 5548 5559 5567 5576 5584 5592 5600 5605 5610 5614 5618 5620 5622 5622 5621 5619 5617 5613 5613 5612 5613 5615 5618 5621 5624 5625 5628 5631 5633 5633 5636 5637 5638 5638 5639 5641 5641
5452 5460 5469 5477 5482 5492 5506 5519 5529 5539 5547 5555 5564 5575 5582 5591 5598 5603 5607 5611 5616 5618 5620 5621 5621 5619 5618 5616 5614 5613 5612 5613 5614 5616 5619 5621 5623 5626 5627 5628 5629 5631 5629 5630 5632 5633 5633
5457 5465 5474 5480 5486 5494 5504 5516 5530 5539 5545 5552 5563 5572 5580 5588 5595 5600 5604 5609 5613 5617 5618 5619 5619 5619 5618 5617 5616 5613 5612 5613 5613 5613 5615 5616 5618 5620 5621 5622 5623 5623 5624 5625 5627 5630 5626
5462 5470 5477 5483 5490 5501 5506 5517 5528 5538 5545 5552 5563 5571 5578 5585 5593 5598 5602 5606 5610 5614 5616 5618 5619 5619 5618 5618 5617 5617 5614 5614 5611 5612 5611 5611 5613 5613 5614 5615 5617 5618 5620 5620 5618 5618 5617
5464 5475 5482 5489 5499 5506 5513 5521 5530 5539 5547 5553 5562 5570 5576 5584 5591 5597 5600 5604 5608 5611 5614 5615 5616 5617 5617 5618 5617 5616 5615 5614 5614 5611 5609 5608 5610 5609 5609 5611 5610 5611 5610 5610 5610 5609 5608
Wind_Speed
41 37 36 37 38 39 39 41 37 36 37 37 38 39 42 42 41 44 46 48 53 60 65 64 63 57 56 49 26 19 23 18 14 24 28 22 24 50 56 60 68 67 44 64 66 56 58
45 45 44 39 38 35 38 39 41 38 38 37 38 38 42 42 42 43 47 48 53 60 64 63 60 56 52 43 28 15 21 19 21 26 32 19 36 47 53 61 69 58 57 60 62 55 56
48 47 48 46 43 44 43 41 43 42 40 38 39 39 40 43 42 44 47 48 53 61 62 61 57 55 52 40 22 12 17 16 20 27 34 25 38 51 56 59 65 53 49 66 46 51 57
50 52 52 49 48 47 47 48 43 45 46 35 37 40 40 42 41 43 46 49 54 59 62 59 56 54 51 36 22 16 10 12 18 26 23 30 37 48 50 55 60 56 50 71 56 51 59
51 50 50 50 48 49 50 50 46 44 48 38 31 34 38 41 41 42 45 48 54 58 58 56 55 52 47 33 22 15 9 10 20 25 25 35 42 46 47 52 56 57 48 58 54 43 42
51 51 51 51 51 50 48 49 49 46 45 47 31 32 35 42 39 40 44 46 53 56 55 54 54 52 38 29 20 11 11 17 21 31 28 37 42 46 44 42 51 47 58 58 58 47 34
48 48 49 49 48 46 45 45 49 49 41 45 43 31 34 43 36 38 42 45 51 53 52 50 47 43 29 24 25 22 12 22 19 22 26 36 40 49 33 34 38 50 52 62 52 57 38
49 50 48 48 45 45 44 44 44 51 45 45 33 27 35 44 32 36 39 43 49 52 46 45 43 30 20 26 30 27 16 10 14 23 33 43 34 30 33 27 29 40 50 59 54 45 33
54 55 54 53 48 45 46 40 45 49 48 43 34 30 34 42 28 33 36 40 46 48 41 38 36 21 18 25 27 20 13 15 24 24 35 38 25 29 22 27 31 31 51 50 43 23 19
56 56 57 54 54 51 44 46 45 46 49 43 42 38 32 40 26 31 33 37 42 43 38 33 28 12 15 14 18 14 14 14 24 29 34 27 17 25 24 26 26 28 40 49 37 24 22
60 63 62 59 60 59 53 49 51 47 50 47 45 46 30 36 25 29 30 34 39 40 33 31 20 11 17 13 10 11 18 19 30 33 32 24 25 23 19 17 16 21 32 27 31 27 27
63 66 67 66 65 60 54 55 51 55 52 49 49 46 34 32 24 26 27 31 35 35 29 22 11 10 14 12 5 11 19 25 29 18 10 15 22 25 21 13 11 26 35 26 25 20 22
74 73 75 76 72 69 63 61 62 57 56 55 47 48 40 30 22 23 24 27 31 32 29 20 7 10 11 13 12 17 20 31 24 12 19 14 17 19 13 14 10 16 23 23 21 21 15
76 73 66 71 67 73 77 70 64 64 61 60 50 49 30 27 20 19 20 23 27 31 26 14 5 16 12 17 23 12 16 21 10 18 19 17 16 16 14 13 13 15 20 17 16 19 18
76 78 74 70 65 60 69 74 72 67 66 60 47 38 26 26 17 16 16 19 22 28 24 10 3 18 18 25 22 13 9 4 6 16 14 15 12 13 11 14 19 22 20 16 12 16 19
80 75 68 46 41 39 40 45 52 52 57 47 45 35 21 25 14 13 11 15 19 24 22 13 4 19 22 29 21 15 15 15 17 14 10 9 12 13 11 14 17 20 20 21 16 15 16
74 68 54 35 23 21 27 31 44 42 48 32 43 34 24 24 13 11 8 10 15 21 21 14 3 19 29 30 24 22 20 15 12 11 10 9 8 8 8 8 10 16 20 22 21 20 18
66 62 44 27 28 24 31 43 56 49 43 47 45 31 25 24 14 10 6 6 11 17 20 16 0 14 31 32 26 26 22 13 11 8 4 5 6 9 9 9 9 10 15 18 20 20 20
64 60 33 26 25 21 36 61 52 53 44 47 35 31 25 24 14 11 5 3 8 13 17 16 6 8 14 30 30 26 19 13 9 8 5 7 7 7 8 10 11 11 10 13 18 23 23
64 53 26 25 20 20 57 59 59 48 41 36 34 31 22 22 16 12 7 3 5 10 14 14 9 8 14 20 30 29 27 19 16 12 12 8 7 7 7 6 9 14 16 18 18 19 20
62 43 17 21 17 49 56 54 53 44 40 31 34 29 21 22 17 14 9 5 6 8 12 13 12 4 16 21 22 23 23 20 18 19 15 14 9 7 5 5 6 8 14 18 17 16 22
55 26 15 22 36 50 54 62 54 41 35 35 31 27 24 24 19 16 12 8 10 9 11 14 13 9 8 19 20 24 22 24 24 23 21 19 16 15 12 9 9 8 8 8 10 15 16
40 12 22 47 61 63 58 60 43 44 43 32 27 23 31 25 21 18 15 10 8 9 10 12 14 17 11 15 21 23 23 22 18 17 19 22 22 20 18 18 16 13 13 14 15 15 18
22 24 47 67 64 64 60 51 50 46 35 25 18 30 35 26 24 21 17 13 8 10 10 12 16 17 15 15 5 13 22 22 22 21 19 18 17 18 19 21 21 16 17 18 18 20 21
11 42 66 59 49 55 46 45 45 38 40 30 30 32 36 27 24 22 19 15 11 9 10 12 16 19 19 20 17 11 3 15 20 20 19 19 18 19 21 19 20 19 20 21 21 21 23
22 58 57 53 58 58 45 36 39 38 36 33 29 34 34 26 25 22 19 17 14 10 9 9 10 15 18 20 21 18 11 5 2 13 20 22 20 19 19 24 25 23 25 27 25 25 25
53 66 51 42 40 47 43 41 37 36 41 34 29 35 32 25 24 23 21 18 16 12 9 9 8 8 11 16 17 18 18 15 7 2 7 16 22 23 23 22 23 25 24 24 26 27 29
69 54 42 36 38 40 39 34 31 37 36 35 33 35 35 30 25 24 21 18 17 13 10 8 8 7 8 10 9 12 15 14 13 12 6 2 5 16 24 28 27 28 28 29 30 29 31
72 49 44 38 43 38 35 35 29 33 33 33 37 35 35 27 25 23 20 18 14 13 11 8 5 4 5 6 8 8 7 9 10 12 11 4 3 5 10 13 18 22 29 32 34 35 36
Wind_Direction
324 320 320 320 319 315 305 299 303 301 299 301 301 304 308 311 316 318 324 323 324 326 328 332 332 329 331 332 309 316 331 228 228 215 175 181 208 184 198 196 194 202 203 196 203 204 201
314 316 317 314 318 322 326 310 302 304 300 303 302 303 309 311 315 318 324 324 325 327 330 332 332 330 332 330 313 312 330 216 226 209 187 170 194 183 192 195 192 188 192 193 195 201 205
308 308 312 313 312 318 321 327 323 304 303 302 306 307 309 312 315 318 324 324 327 328 332 332 332 332 331 326 309 307 331 214 223 193 195 181 187 188 187 190 193 187 206 194 196 193 206
301 302 303 307 308 311 315 318 322 320 312 299 308 308 309 312 314 318 323 325 327 329 332 333 332 335 330 326 321 296 303 235 216 191 190 191 180 185 188 186 189 196 198 194 182 184 209
292 293 294 296 300 303 308 313 316 322 320 298 310 311 308 313 312 318 323 325 327 330 333 334 334 337 333 324 307 288 277 240 198 185 190 192 179 187 187 185 189 193 199 196 189 190 190
289 289 288 288 292 295 299 303 310 313 318 310 302 307 306 317 310 318 322 326 326 332 335 335 338 341 340 340 330 275 238 193 192 185 187 185 182 177 172 192 198 195 194 198 195 188 195
289 287 287 288 289 291 292 297 303 308 308 316 292 304 301 317 309 316 322 325 327 333 335 338 341 345 356 19 46 59 105 161 173 176 165 175 178 179 179 173 191 197 194 197 199 203 195
287 285 284 284 286 287 288 290 296 300 306 309 294 305 299 312 308 316 320 324 327 332 338 340 345 352 30 58 59 57 91 151 194 173 160 162 161 178 186 182 185 201 199 189 198 210 200
288 288 287 284 284 282 282 282 287 293 299 305 283 292 303 306 305 313 318 323 327 335 338 343 350 10 60 88 71 79 95 116 144 146 168 163 159 163 159 191 203 197 203 192 189 161 178
288 287 286 280 282 285 285 280 276 283 291 294 287 285 293 301 298 309 316 321 329 335 340 348 358 39 90 101 87 71 81 129 144 145 160 167 166 169 163 163 198 207 198 194 208 224 186
289 283 282 279 277 280 282 280 275 277 280 286 283 286 283 297 293 307 313 320 329 336 340 345 7 92 111 105 89 116 95 125 147 142 142 118 157 147 158 171 199 197 192 178 185 186 208
293 291 286 279 275 271 271 274 268 271 270 276 282 274 279 293 283 302 309 320 329 335 344 352 25 109 159 133 167 133 89 130 149 148 147 151 151 146 142 154 196 185 185 179 159 144 188
300 294 290 281 275 268 264 263 265 262 267 268 275 266 269 283 271 297 306 320 330 335 344 352 42 115 120 155 147 138 120 139 140 143 152 153 144 174 170 182 185 184 199 181 210 180 188
301 299 294 291 276 264 259 257 253 257 260 261 264 258 250 266 262 291 304 322 333 339 343 354 30 138 122 154 155 164 132 125 105 112 132 140 148 157 166 177 200 197 185 197 214 210 211
309 303 300 295 280 266 258 253 252 249 255 252 251 234 244 247 255 283 301 322 335 340 344 352 30 160 140 158 176 190 182 168 157 138 138 138 154 159 173 192 197 211 217 228 227 220 235
312 309 308 295 275 262 248 241 236 232 237 234 227 221 234 232 247 272 294 321 339 345 348 357 73 177 165 156 165 168 158 131 125 136 145 155 168 185 191 204 215 208 209 215 209 211 220
315 317 310 285 251 232 206 195 186 186 211 210 217 205 219 235 238 254 281 327 346 348 348 4 80 176 171 168 159 168 151 142 142 155 161 181 194 198 204 203 212 211 209 212 220 220 224
320 321 309 262 238 219 196 175 172 193 177 204 207 221 219 225 225 230 259 342 2 355 352 8 12 154 185 180 184 175 167 168 168 173 217 226 211 206 217 230 236 215 206 220 222 227 225
322 322 303 236 240 224 190 168 178 172 184 198 208 205 217 211 211 211 222 29 15 4 0 10 8 174 177 198 188 197 212 225 203 229 252 228 230 218 216 233 237 234 237 227 222 224 231
326 322 297 229 220 213 173 168 170 162 182 203 198 200 212 199 198 198 188 110 49 20 15 19 28 204 184 192 202 208 214 235 248 230 241 227 219 208 202 212 221 222 228 232 234 234 234
329 319 276 209 210 171 157 163 166 170 184 198 195 194 197 197 196 190 177 142 91 51 25 29 40 158 201 193 192 205 221 226 230 227 230 219 211 210 234 214 209 226 222 230 235 235 234
329 311 207 187 173 170 162 161 164 178 182 201 190 195 203 195 190 185 173 146 123 80 43 36 48 77 199 206 209 216 221 229 231 229 227 234 235 244 244 252 237 230 242 251 245 237 237
326 244 186 169 163 160 166 163 174 182 180 173 177 204 192 187 188 183 173 156 134 114 74 54 56 59 97 185 214 220 223 226 228 231 236 238 243 244 251 260 260 258 249 249 254 248 243
316 202 168 163 164 159 160 166 174 168 163 175 189 202 183 181 187 180 173 162 151 141 103 76 70 66 69 83 149 208 220 223 227 232 240 246 247 249 245 251 259 254 248 251 254 254 252
264 185 171 162 160 169 164 163 187 175 192 184 191 191 178 180 182 180 174 164 161 135 134 99 78 73 69 70 73 84 140 232 232 230 233 240 249 253 257 258 258 254 253 251 251 254 252
194 180 162 158 167 169 160 163 184 178 176 177 178 188 178 175 182 179 174 173 166 150 137 127 97 80 73 70 68 66 74 108 234 240 235 238 245 250 252 254 259 259 258 256 251 249 251
178 168 163 155 151 151 149 156 178 186 178 170 179 183 178 176 178 180 176 177 175 173 155 124 109 87 80 76 69 68 65 67 66 83 241 241 245 249 252 256 260 262 262 263 266 261 259
175 168 172 177 160 156 159 167 172 180 176 172 179 181 179 177 184 181 178 180 183 189 179 154 124 108 90 76 76 70 66 62 59 54 76 99 271 252 252 256 257 266 269 271 271 274 272
182 173 157 156 165 170 171 176 179 181 179 174 180 182 184 178 182 180 181 180 183 191 183 182 165 130 109 99 71 68 71 61 47 42 43 35 21 280 279 274 274 272 270 271 273 275 275